CZ-6A DEB, 55231

Orbit data source: Space-Track

CZ-6A DEB, 55231 is space debris in SSO originally from a launch on Fri, 11 Nov 2022 UTC launched from the Taiyaun Space Center, China (TSC). Debris objects in space refer to the collection of defunct objects orbiting the Earth. Examples of debris include non-operational satellites, rocket bodies, and fragments generated from explosions, collisions, or faulty payload assembly.

Loading next visibility...
Identifier
55231, 2022-151WY
Orbit
SSO
Country
Flag of CNCN / PRC
Related business
Manufacturer
SAST
Mission
Spacecraft
Bus & Motor
Unknown
Mass
Unknown
Launch date (UTC)
2022-11-11 (4 years ago)
Launch vehicle
Unknown
Launch site
Taiyaun Space Center, China (TSC)
Object type
Payload
Rocket body
Debris
Shape & HBR
Unknown shape, 0.1 m
Radar Cross Section
Small (<0.1 m²)

Expand to show TLE details & history
Last TLE update: 3 days ago

TLE from 3 days ago
0 CZ-6A DEB
1 55231U 22151WY  26170.18678489  .00011558  00000-0  15114-2 0  9998
2 55231  98.6209 250.5400 0073873 218.9814 140.6057 14.78696476185992
Epoch: 2026-06-19T04:28Z
TLE epoch observation values (Epoch: 2026-06-19T04:28:58.214Z)
Latitude
0.00001°
Longitude
-84.12193°
Altitude
676.628 km
Speed
7.497 km/s
True Right ascension
16h 42m 09s
True Declination
0° 00' 00"
Sunlit
Object was in full shadow at epoch
Visualization orbit readout
Latitude
Unknown
Longitude
Unknown
Altitude
Unknown
Speed
Unknown
Apparent Right ascension
Unknown
Apparent Declination
Unknown
Sunlit
N/A
Visualization observer readout
Local Sidereal Time
21:26:54
Azimuth
Unknown
Elevation
Unknown
Doppler factor
Unknown
Orbital elements
Apogee altitude
682.293 km
Perigee altitude
578.743 km
Semi-major axis
7,008.655 km
Eccentricity
0.00739
Inclination
98.6209°
RAAN
250.54°
Arg. of periapsis
218.9814°
True anomaly
141.13913°
Mean anomaly
140.6057°
Eccentric anomaly
140.8728°
Mean motion
3.69906 °/min
Orbital period
97.32 mins
BSTAR
0.0015114
Loading maneuver chart data...
Computing Atmospheric mass density...
Loading historical data...
Loading historical data...
Loading historical data...
Loading historical data...
Loading historical data...
Loading historical data...
Loading historical data...

Documentation

Showing up to 5 results
|